Wind_Speed
44 55 63 65 66 68 69 66 65 65 65 66 69 69 68 68 67 68 70 72 75 77 79 80 80 79 79 80 83 84 84 85
44 47 62 70 72 72 69 69 71 69 70 70 72 73 72 73 74 75 76 79 80 80 82 82 82 82 81 83 86 88 89 89
40 42 58 66 72 77 73 72 74 74 76 77 77 78 78 80 81 81 81 82 82 84 86 87 86 87 89 89 92 95 95 95
47 48 50 59 68 76 79 80 80 77 77 79 80 81 83 85 86 87 89 90 90 90 90 91 93 94 94 93 93 95 98 103
49 53 56 58 57 69 79 80 80 81 82 83 83 85 88 88 88 89 89 90 92 93 92 91 92 95 96 100 102 103 107 108
53 56 60 60 64 67 69 72 81 84 85 86 86 88 90 90 91 91 91 92 93 94 95 97 98 101 103 103 106 108 109 111
61 60 63 68 71 74 72 73 73 79 85 87 91 92 92 91 92 93 94 95 96 97 99 100 101 102 105 107 107 110 111 114
73 68 72 73 80 84 81 74 73 77 79 85 88 92 95 96 96 95 95 95 96 96 99 102 103 105 109 111 111 112 113 111
73 76 80 79 75 79 79 82 82 79 79 80 84 88 92 95 96 97 96 97 99 103 105 104 107 108 111 111 109 108 107 109
82 84 74 63 66 71 74 76 78 78 79 79 80 82 86 88 89 93 95 95 95 98 102 104 106 104 100 97 97 97 97 97
92 66 59 59 76 77 70 72 74 78 79 79 80 80 80 80 82 84 86 89 93 96 96 95 95 94 93 94 94 93 94 86
70 54 60 65 66 72 72 70 71 76 78 77 78 79 79 80 81 82 83 85 88 89 90 91 92 91 90 89 90 84 74 67
66 50 40 58 67 63 58 72 75 75 73 74 77 79 80 81 81 81 83 84 84 86 87 87 87 86 85 83 74 66 60 54
49 51 51 60 66 68 68 69 74 70 71 74 76 78 79 81 82 83 83 83 83 84 84 81 79 79 74 67 60 54 48 45
54 51 60 75 77 79 81 81 82 79 75 74 74 76 78 79 80 80 81 80 79 78 76 73 70 65 60 54 49 44 42 38
44 56 65 57 66 75 81 84 88 86 82 77 76 76 77 74 75 74 75 75 72 70 66 62 58 55 48 45 41 39 36 32
53 59 72 65 68 66 64 66 70 72 76 77 76 76 77 72 71 67 67 65 63 61 57 54 51 45 43 40 37 34 31 30
61 66 76 69 74 75 70 67 68 65 64 66 67 66 68 68 65 63 60 58 56 54 51 48 43 41 39 36 33 31 31 29
57 59 66 73 71 72 70 65 65 65 66 64 63 61 60 59 59 55 52 53 53 49 45 42 40 39 35 33 31 32 31 29
Wind_Direction
288 274 271 268 266 266 265 264 262 261 260 260 263 262 262 264 266 267 266 265 265 265 266 268 268 269 269 270 272 273 274 276
288 280 270 268 266 263 264 262 263 262 262 262 262 263 264 265 265 265 265 265 264 266 267 268 269 270 272 273 274 276 278 279
284 286 274 268 266 266 263 262 261 262 263 263 263 264 265 264 263 263 265 266 267 267 267 268 269 271 271 274 276 278 280 283
290 283 279 274 266 265 266 266 265 265 264 265 265 266 267 267 267 269 268 268 269 270 270 270 270 272 274 277 280 281 283 282
292 282 279 280 270 269 266 264 264 264 264 264 264 265 265 267 269 270 270 272 273 274 275 274 275 276 277 277 277 279 279 280
296 288 282 277 274 269 265 265 262 260 261 262 262 263 265 266 267 268 269 271 272 273 273 273 274 274 275 276 277 278 279 280
294 287 286 281 276 274 267 259 260 261 260 259 260 262 262 262 265 267 267 268 270 271 272 274 274 274 275 276 277 279 280 282
295 289 282 279 275 269 268 263 260 260 259 257 258 258 260 262 264 265 267 268 269 269 270 273 273 275 276 277 280 280 282 285
292 285 284 282 275 266 261 260 260 260 258 257 257 257 258 260 262 264 266 267 269 270 272 274 274 277 278 280 283 283 282 285
295 289 274 265 255 258 256 254 256 256 257 259 260 260 261 262 263 265 266 267 268 271 273 276 277 278 279 281 282 284 285 285
294 285 271 249 249 261 259 256 252 253 256 258 261 263 264 265 266 267 268 269 270 272 274 275 277 279 280 282 285 285 286 285
284 270 257 262 257 260 261 259 256 254 256 259 261 263 264 266 268 269 270 271 272 274 276 277 279 281 283 284 285 285 284 282
275 268 275 250 257 263 261 264 259 256 257 259 260 262 265 267 269 271 272 273 276 278 279 279 281 283 284 285 285 283 281 279
261 253 228 241 250 256 258 263 263 258 258 259 260 262 265 267 269 271 274 275 277 278 279 281 282 284 285 283 282 280 277 272
259 253 243 243 248 251 253 258 263 264 264 263 263 263 265 267 269 271 272 275 277 279 280 282 283 282 282 280 277 274 268 263
249 265 266 258 253 252 256 258 258 262 267 269 269 268 267 269 271 273 274 276 278 280 282 282 282 281 278 274 271 264 259 250
245 244 254 264 259 266 266 257 259 263 264 267 270 271 273 277 279 277 278 279 280 280 281 281 279 276 273 269 261 255 244 235
250 235 245 248 255 262 271 270 270 270 269 268 270 272 276 278 279 278 277 278 277 279 279 277 273 271 267 258 252 238 232 235
255 251 246 250 259 265 269 269 270 273 273 272 272 272 272 273 273 273 274 276 277 277 273 270 268 264 257 248 234 228 231 238
Height
10604 10600 10594 10590 10586 10584 10586 10591 10593 10594 10597 10596 10592 10591 10592 10593 10595 10594 10591 10591 10591 10592 10590 10589 10587 10587 10587 10583 10577 10577 10577 10578
10588 10583 10578 10572 10568 10569 10568 10572 10574 10576 10575 10574 10572 10572 10575 10576 10576 10575 10573 10572 10573 10573 10570 10570 10568 10567 10567 10564 10558 10556 10556 10554
10573 10562 10556 10552 10544 10546 10551 10555 10554 10555 10555 10554 10553 10555 10555 10552 10552 10553 10553 10551 10550 10550 10549 10549 10547 10546 10545 10543 10538 10533 10532 10532
10550 10545 10537 10533 10529 10526 10526 10531 10536 10538 10538 10537 10536 10535 10532 10530 10531 10533 10532 10530 10529 10529 10530 10529 10526 10525 10523 10521 10516 10511 10507 10506
10524 10523 10518 10516 10511 10507 10506 10511 10514 10514 10516 10516 10516 10515 10511 10511 10512 10510 10509 10508 10508 10506 10506 10506 10503 10502 10500 10498 10495 10491 10486 10482
10500 10499 10496 10495 10492 10485 10487 10491 10490 10490 10493 10493 10492 10490 10490 10493 10490 10489 10488 10487 10487 10486 10485 10484 10482 10480 10479 10476 10473 10468 10465 10458
10481 10477 10474 10472 10467 10462 10462 10466 10471 10470 10468 10468 10469 10468 10468 10469 10468 10469 10468 10467 10467 10465 10464 10462 10460 10458 10455 10452 10449 10444 10440 10436
10457 10459 10455 10449 10444 10439 10437 10442 10446 10446 10446 10447 10446 10445 10446 10446 10445 10446 10447 10446 10444 10443 10441 10441 10436 10434 10431 10428 10424 10420 10415 10409
10434 10436 10429 10421 10415 10413 10413 10414 10418 10421 10419 10422 10424 10425 10424 10423 10424 10424 10425 10423 10421 10419 10418 10415 10410 10410 10407 10403 10397 10394 10387 10384
10399 10401 10398 10395 10391 10387 10390 10390 10392 10394 10394 10396 10398 10401 10402 10402 10401 10401 10402 10399 10397 10396 10395 10392 10389 10385 10383 10377 10375 10371 10363 10357
10366 10364 10365 10366 10365 10365 10367 10366 10369 10369 10373 10376 10377 10379 10380 10380 10379 10379 10377 10376 10375 10375 10373 10369 10366 10365 10362 10356 10351 10346 10340 10333
10332 10339 10340 10341 10343 10343 10342 10342 10343 10346 10351 10355 10356 10358 10359 10358 10359 10359 10357 10355 10354 10352 10351 10348 10345 10342 10339 10332 10327 10323 10316 10312
10314 10320 10323 10324 10324 10325 10326 10321 10320 10326 10333 10334 10336 10337 10337 10338 10339 10339 10335 10334 10334 10331 10328 10327 10323 10318 10316 10309 10304 10299 10296 10295
10292 10298 10304 10304 10305 10306 10305 10303 10301 10308 10314 10315 10315 10317 10319 10318 10319 10318 10317 10315 10314 10311 10306 10305 10303 10297 10293 10289 10285 10282 10280 10280
10268 10274 10279 10280 10285 10286 10288 10286 10286 10289 10295 10297 10298 10298 10299 10301 10300 10299 10297 10295 10294 10292 10287 10285 10282 10278 10274 10271 10269 10268 10268 10268
10258 10258 10255 10261 10265 10267 10268 10271 10272 10271 10274 10278 10279 10280 10281 10283 10280 10279 10277 10276 10274 10271 10269 10265 10263 10260 10258 10256 10256 10256 10257 10258
10237 10243 10241 10243 10242 10245 10248 10253 10254 10256 10258 10259 10261 10261 10258 10258 10257 10259 10255 10255 10254 10252 10251 10249 10247 10245 10244 10244 10244 10245 10247 10250
10215 10219 10223 10226 10225 10230 10233 10236 10237 10239 10241 10241 10243 10245 10243 10240 10240 10239 10239 10238 10237 10236 10235 10234 10233 10232 10232 10233 10234 10236 10239 10242
10194 10203 10208 10211 10216 10216 10217 10220 10220 10223 10222 10223 10223 10225 10226 10226 10226 10225 10223 10222 10220 10220 10220 10220 10221 10221 10222 10223 10225 10228 10231 10234